SESAT 2 (EXPRESS AM-22)

导读 | 星芒AI

SESAT 2(EXPRESS AM-22)是俄罗斯制造的一颗通信卫星,由RSC Energia设计,于2014年12月19日由质子-M火箭发射。该卫星位于东经55度轨道位置,主要为俄罗斯及周边地区提供固定卫星服务、广播和政府通信。卫星搭载C波段和Ku波段转发器,设计寿命为10年,具备高功率和先进有效载荷,支持多种通信应用。它在增强俄罗斯通信基础设施和国家安全方面发挥重要作用。

基本信息
目录编号:
28134
目录名称:
SESAT 2 (EXPRESS AM-22)
国际标识:
2003-060A
轨道中心:
EARTH
卫星名称:
SESAT 2 (EXPRESS AM-22)
卫星全名:
--
卫星状态:
在轨 (已飞行8023 天)
发射日期:
2003-12-28 UTC
国别 :
(EUTE)
星等 :
--
轨道信息
数据来源 国际轨道数据 AOE轨道数据
星历时间 2025-12-14T20:51:39+0800
1天前
查看轨道信息
2025-12-15T04:00:00+0800
22小时前
查看轨道信息
半长轴 42420.641km 42420.641km
偏心率 0.0012413 0.001244
轨道倾角 7.822° 7.822°
近地点辐角 150.143° 150.249°
升交点赤经 66.167° 66.164°
平近点角 215.924° 322.233°
近地点 35989.849km 35989.734km
远地点 36095.163km 36095.278km
周期 1449.191分钟 1449.191分钟
每日圈数 0.993658 0.993658
详细信息
使用方式:
暂无
2D轨道图
3D轨道图
轨道高度分析图
轨道倾角分析图
轨道综合分析图
查看轨道综合分析图